This is the latest recevied weather packets stored in our database for station/object KC5L-7. If no packets are shown the sender has not sent any weather packets the latest 10 day(s).
| Time | Temp. | Humidity | Pressure | Rain* | Wind** | Luminosity | Snow |
|---|---|---|---|---|---|---|---|
| 1777774882 | 19.44° C | 47% | 1019.3 hPa | 0 mm | - | - | - |
| 1777774282 | 19.44° C | 45% | 1018.9 hPa | 0 mm | - | - | - |
| 1777773682 | 20° C | 44% | 1018.6 hPa | 0 mm | - | - | - |
| 1777773082 | 20° C | 41% | 1018.4 hPa | 0 mm | - | - | - |
| 1777771882 | 20.56° C | 40% | 1018.1 hPa | 0 mm | - | - | - |
| 1777771282 | 21.11° C | 37% | 1018 hPa | 0 mm | - | - | - |
| 1777770682 | 21.67° C | 37% | 1017.7 hPa | 0 mm | - | - | - |
| 1777770082 | 21.67° C | 34% | 1017.7 hPa | 0 mm | - | - | - |
| 1777769483 | 22.22° C | 34% | 1017.6 hPa | 0 mm | - | - | - |
| 1777768882 | 22.22° C | 33% | 1017.5 hPa | 0 mm | - | - | - |
| 1777768282 | 22.78° C | 32% | 1017.4 hPa | 0 mm | - | - | - |
| 1777767682 | 22.78° C | 32% | 1017.3 hPa | 0 mm | - | - | - |
| 1777767082 | 22.78° C | 32% | 1017.4 hPa | 0 mm | - | - | - |
| 1777766482 | 22.78° C | 32% | 1017.4 hPa | 0 mm | - | - | - |
| 1777765882 | 22.78° C | 31% | 1017.3 hPa | 0 mm | - | - | - |
| 1777765282 | 23.33° C | 31% | 1017.3 hPa | 0 mm | - | - | - |
| 1777764682 | 23.33° C | 30% | 1017.3 hPa | 0 mm | - | - | - |
| 1777764083 | 23.33° C | 30% | 1017.3 hPa | 0 mm | - | - | - |
| 1777763482 | 23.33° C | 29% | 1017.3 hPa | 0 mm | - | - | - |
| 1777761898 | 23.33° C | 32% | 1017.1 hPa | 0 mm | - | - | - |
| 1777760698 | 23.33° C | 31% | 1017.2 hPa | 0 mm | - | - | - |
| 1777760098 | 23.33° C | 29% | 1017.3 hPa | 0 mm | - | - | - |
| 1777759498 | 23.33° C | 29% | 1017.4 hPa | 0 mm | - | - | - |
| 1777758898 | 23.33° C | 31% | 1017.3 hPa | 0 mm | - | - | - |
| 1777758298 | 23.33° C | 30% | 1017.4 hPa | 0 mm | - | - | - |
* Rain latest hour (hover to see other rain measurements)
** Current wind speed in m/s (hover to see current wind gust speed)